Victoria, TX

11:53 AM CDT on June 28, 2017 (GMT -0500)
Victoria Regional

Weather History for KVCT - August, 2013

Change the Weather History Date:

Friday, August 23, 2013

  Actual Average Record
Temperature  
Mean Temperature 86 °F 84 °F  
Max Temperature 98 °F 95 °F 105 °F (1917)
Min Temperature 74 °F 74 °F 66 °F (1949)
Degree Days  
Heating Degree Days 0 0  
Month to date heating degree days 0 0  
Since 1 June heating degree days 0 0  
Since 1 July heating degree days 0 0  
Cooling Degree Days 21 19  
Month to date cooling degree days 498 455  
Year to date cooling degree days 2335 2208  
Since 1 June cooling degree days 1701 1549  
Growing Degree Days 36 (Base 50)    
Moisture  
Dew Point 73 °F    
Average Humidity 67    
Maximum Humidity 94    
Minimum Humidity 40    
Precipitation  
Precipitation 0.00 in 0.09 in 1.30 in (1986)
Month to date precipitation 0.91 1.89  
Year to date precipitation 14.00 25.91  
Snow  
Snow 0.00 in - - ()
Month to date snowfall 0.0  
Since 1 June snowfall 0.0  
Since 1 July snowfall 0.0  
Snow Depth 0.00 in    
Sea Level Pressure  
Sea Level Pressure 29.96 in    
Wind  
Wind Speed 6 mph (ENE)    
Max Wind Speed 20 mph    
Max Gust Speed 28 mph    
Visibility 8 miles    
Events      
T = Trace of Precipitation, MM = Missing Value Source: NWS Daily Summary

Daily Weather History Graph

Daily Weather History Graph

Search for Another Location

Airport or City:

Trip Planner

Search our weather history database for the weather conditions in past years. The results will help you decide how hot, cold, wet, or windy it might be!

Date:

Astronomy

Aug. 23, 2013 Rise Set
Actual Time 7:01 AM CDT 7:58 PM CDT
Civil Twilight 6:36 AM CDT 8:23 PM CDT
Nautical Twilight 6:07 AM CDT 8:52 PM CDT
Astronomical Twilight 5:38 AM CDT 9:21 PM CDT
Moon 9:39 PM CDT (8/23) 9:38 AM CDT (8/23)
Length of Visible Light 13h 46m
Length of Day
12h 57m
Waning Gibbous, 91% of the Moon is Illuminated
Aug 23
Waning Gibbous
Aug 28
Last Quarter
Sep 5
New
Sep 12
First Quarter
Sep 19
Full

Hourly Weather History & Observations

Time (CDT) Temp. Heat Index Dew Point Humidity Pressure Visibility Wind Dir Wind Speed Gust Speed Precip Events Conditions
12:51 AM 79.0 °F - 75.0 °F 88% 29.99 in 9.0 mi Calm Calm - N/A   Clear
1:51 AM 77.0 °F - 75.0 °F 94% 29.98 in 9.0 mi ENE 3.5 mph - N/A   Clear
2:51 AM 75.9 °F - 73.9 °F 94% 29.96 in 8.0 mi East 4.6 mph - N/A   Clear
3:51 AM 75.9 °F - 73.9 °F 94% 29.96 in 6.0 mi North 5.8 mph - N/A   Clear
4:51 AM 75.9 °F - 73.9 °F 94% 29.96 in 7.0 mi Calm Calm - N/A   Clear
5:51 AM 75.0 °F - 73.0 °F 94% 29.96 in 5.0 mi Calm Calm - N/A   Clear
6:51 AM 75.0 °F - 73.0 °F 94% 29.97 in 4.0 mi North 3.5 mph - N/A   Clear
6:56 AM 75.2 °F - 73.4 °F 94% 29.98 in 5.0 mi North 3.5 mph - N/A   Clear
7:38 AM 77.0 °F - 75.2 °F 94% 29.99 in 5.0 mi NNE 4.6 mph - N/A   Mostly Cloudy
7:51 AM 77.0 °F - 75.0 °F 94% 29.99 in 5.0 mi NNE 3.5 mph - N/A   Scattered Clouds
8:51 AM 81.0 °F 87.9 °F 77.0 °F 88% 30.00 in 10.0 mi North 4.6 mph - N/A   Scattered Clouds
9:12 AM 84.2 °F 94.1 °F 77.0 °F 79% 30.01 in 10.0 mi NNE 5.8 mph - N/A   Mostly Cloudy
9:21 AM 84.2 °F 94.1 °F 77.0 °F 79% 30.01 in 10.0 mi NNE 4.6 mph - N/A   Scattered Clouds
9:51 AM 86.0 °F 96.0 °F 75.9 °F 72% 30.01 in 10.0 mi NE 5.8 mph - N/A   Scattered Clouds
10:51 AM 89.1 °F 98.0 °F 73.9 °F 61% 30.01 in 10.0 mi ENE 6.9 mph - N/A   Partly Cloudy
11:51 AM 93.0 °F 100.7 °F 72.0 °F 50% 30.00 in 10.0 mi East 4.6 mph - N/A   Mostly Cloudy
12:51 PM 91.9 °F 97.4 °F 70.0 °F 48% 29.98 in 10.0 mi ESE 8.1 mph - N/A   Scattered Clouds
1:51 PM 96.1 °F 101.0 °F 68.0 °F 40% 29.96 in 10.0 mi NE 5.8 mph 16.1 mph N/A   Partly Cloudy
2:51 PM 95.0 °F 100.7 °F 69.1 °F 43% 29.94 in 10.0 mi Variable 5.8 mph - N/A   Mostly Cloudy
3:51 PM 95.0 °F 102.5 °F 71.1 °F 46% 29.91 in 10.0 mi ESE 9.2 mph 19.6 mph N/A   Partly Cloudy
4:51 PM 95.0 °F 103.2 °F 72.0 °F 47% 29.89 in 10.0 mi SE 13.8 mph 20.7 mph N/A   Clear
5:51 PM 93.9 °F 100.8 °F 71.1 °F 47% 29.90 in 10.0 mi ESE 9.2 mph 17.3 mph N/A   Clear
6:51 PM 90.0 °F 97.9 °F 73.0 °F 57% 29.89 in 10.0 mi SSE 16.1 mph - N/A   Clear
7:51 PM 87.1 °F 92.8 °F 71.1 °F 59% 29.91 in 10.0 mi SE 9.2 mph - N/A   Clear
8:51 PM 84.9 °F 92.1 °F 73.9 °F 69% 29.93 in 10.0 mi SSE 6.9 mph - N/A   Clear
9:51 PM 82.0 °F 88.6 °F 75.0 °F 79% 29.95 in 8.0 mi SSE 5.8 mph - N/A   Clear
10:51 PM 81.0 °F 86.7 °F 75.0 °F 82% 29.95 in 7.0 mi Calm Calm - N/A   Clear
11:51 PM 80.1 °F 85.1 °F 75.0 °F 85% 29.96 in 6.0 mi South 5.8 mph - N/A   Haze